Precipitable_Water
0.77 0.78 0.79 0.80 0.81 0.82 0.83 0.83 0.81 0.77 0.75 0.74 0.72 0.69 0.65 0.63 0.61 0.60 0.59 0.59 0.59 0.61 0.60 0.58 0.56 0.54 0.53 0.54 0.52 0.51 0.48 0.39 0.35 0.30 0.28 0.28 0.31 0.29 0.30 0.33 0.34 0.34 0.35 0.31 0.27 0.25 0.24 0.24 0.21 0.23 0.23 0.22 0.22 0.23 0.29 0.25 0.22 0.20 0.14 0.14 0.13 0.13 0.14 0.16 0.15 0.14 0.15 0.13 0.16 0.18 0.18 0.17 0.17 0.52 0.63 0.58 0.47 0.34 0.41 0.36 0.65 0.72 0.71 1.01 1.17 1.24 1.33 1.37
0.72 0.73 0.75 0.76 0.78 0.79 0.79 0.81 0.83 0.82 0.79 0.76 0.74 0.72 0.70 0.67 0.64 0.61 0.61 0.59 0.59 0.59 0.60 0.59 0.57 0.56 0.55 0.53 0.54 0.51 0.43 0.37 0.29 0.28 0.25 0.32 0.31 0.29 0.30 0.32 0.34 0.33 0.36 0.28 0.25 0.23 0.23 0.23 0.21 0.20 0.20 0.18 0.26 0.19 0.29 0.22 0.22 0.17 0.15 0.14 0.11 0.14 0.15 0.19 0.18 0.17 0.14 0.13 0.18 0.19 0.21 0.19 0.36 0.50 0.70 0.48 0.40 0.34 0.47 0.51 0.63 0.68 0.72 0.92 1.15 1.21 1.25 1.28
0.67 0.69 0.70 0.72 0.73 0.75 0.77 0.78 0.78 0.79 0.81 0.81 0.79 0.75 0.73 0.71 0.68 0.65 0.62 0.61 0.60 0.60 0.61 0.60 0.59 0.56 0.55 0.56 0.54 0.49 0.43 0.30 0.28 0.21 0.27 0.45 0.43 0.36 0.34 0.32 0.32 0.34 0.31 0.28 0.27 0.24 0.24 0.26 0.24 0.19 0.18 0.17 0.21 0.18 0.23 0.24 0.20 0.18 0.16 0.13 0.14 0.16 0.18 0.19 0.19 0.17 0.16 0.17 0.17 0.19 0.20 0.20 0.40 0.54 0.76 0.51 0.51 0.44 0.46 0.44 0.51 0.52 0.56 0.77 1.01 1.16 1.19 1.20
0.61 0.62 0.64 0.67 0.69 0.70 0.72 0.75 0.76 0.76 0.77 0.81 0.82 0.81 0.77 0.74 0.71 0.68 0.65 0.62 0.60 0.60 0.62 0.62 0.59 0.57 0.55 0.55 0.56 0.50 0.38 0.30 0.21 0.26 0.37 0.44 0.46 0.48 0.41 0.36 0.34 0.34 0.33 0.29 0.28 0.27 0.28 0.31 0.26 0.20 0.17 0.15 0.19 0.20 0.18 0.23 0.17 0.17 0.16 0.15 0.15 0.16 0.17 0.18 0.17 0.17 0.17 0.17 0.19 0.20 0.21 0.20 0.39 0.40 0.44 0.62 0.46 0.47 0.48 0.52 0.44 0.48 0.61 0.76 0.98 1.10 1.13 1.11
0.55 0.55 0.55 0.58 0.62 0.65 0.66 0.69 0.72 0.74 0.75 0.75 0.78 0.80 0.81 0.78 0.74 0.70 0.68 0.64 0.63 0.62 0.63 0.61 0.59 0.56 0.54 0.56 0.49 0.49 0.37 0.18 0.21 0.34 0.40 0.40 0.44 0.42 0.48 0.45 0.39 0.36 0.31 0.28 0.27 0.28 0.28 0.27 0.26 0.22 0.17 0.14 0.18 0.18 0.18 0.23 0.21 0.22 0.17 0.16 0.17 0.21 0.18 0.19 0.20 0.20 0.19 0.21 0.20 0.21 0.20 0.20 0.24 0.26 0.36 0.50 0.44 0.42 0.45 0.62 0.60 0.71 0.76 0.82 0.94 1.03 1.09 1.05
0.51 0.52 0.52 0.51 0.51 0.55 0.59 0.62 0.65 0.70 0.72 0.75 0.76 0.78 0.80 0.81 0.79 0.73 0.70 0.66 0.66 0.66 0.63 0.61 0.59 0.56 0.56 0.53 0.49 0.43 0.30 0.13 0.33 0.32 0.41 0.38 0.38 0.41 0.45 0.50 0.46 0.39 0.33 0.27 0.24 0.24 0.25 0.26 0.26 0.21 0.17 0.15 0.17 0.15 0.17 0.20 0.22 0.17 0.20 0.16 0.19 0.22 0.16 0.22 0.21 0.21 0.21 0.20 0.21 0.21 0.23 0.23 0.22 0.23 0.25 0.42 0.52 0.63 0.64 0.84 0.76 0.86 0.88 0.92 1.03 1.08 1.03 1.03
0.52 0.52 0.52 0.52 0.50 0.49 0.51 0.54 0.58 0.61 0.66 0.71 0.74 0.77 0.79 0.81 0.81 0.77 0.73 0.69 0.68 0.68 0.66 0.62 0.59 0.58 0.56 0.52 0.48 0.37 0.27 0.26 0.35 0.43 0.42 0.39 0.36 0.38 0.43 0.50 0.53 0.40 0.32 0.25 0.22 0.21 0.23 0.24 0.24 0.20 0.17 0.15 0.17 0.16 0.17 0.19 0.23 0.17 0.15 0.18 0.18 0.21 0.19 0.22 0.22 0.23 0.21 0.21 0.22 0.25 0.26 0.22 0.22 0.21 0.27 0.34 0.59 0.84 0.80 0.89 0.87 0.87 0.87 0.94 0.95 1.03 1.04 1.05
0.55 0.54 0.52 0.51 0.51 0.51 0.49 0.50 0.51 0.55 0.59 0.65 0.70 0.73 0.76 0.79 0.81 0.78 0.76 0.73 0.71 0.68 0.67 0.64 0.61 0.59 0.58 0.47 0.36 0.30 0.28 0.23 0.33 0.42 0.43 0.40 0.36 0.34 0.44 0.56 0.53 0.38 0.28 0.23 0.20 0.20 0.23 0.22 0.21 0.22 0.18 0.15 0.16 0.16 0.20 0.19 0.21 0.15 0.14 0.20 0.21 0.20 0.20 0.21 0.20 0.21 0.21 0.21 0.25 0.26 0.23 0.21 0.22 0.27 0.38 0.41 0.65 0.86 0.82 0.83 0.88 0.83 0.84 0.92 0.97 1.04 1.07 1.08
0.58 0.57 0.55 0.54 0.53 0.51 0.51 0.50 0.50 0.50 0.54 0.58 0.63 0.69 0.73 0.76 0.80 0.81 0.78 0.76 0.73 0.69 0.67 0.66 0.61 0.62 0.59 0.48 0.36 0.27 0.23 0.30 0.36 0.38 0.39 0.40 0.38 0.35 0.38 0.47 0.49 0.36 0.26 0.23 0.22 0.21 0.23 0.21 0.21 0.22 0.17 0.16 0.20 0.17 0.22 0.17 0.16 0.16 0.15 0.17 0.21 0.20 0.22 0.22 0.21 0.20 0.19 0.21 0.24 0.24 0.22 0.23 0.39 0.47 0.37 0.54 0.77 0.88 0.89 0.85 0.85 0.80 0.83 0.91 0.99 1.05 1.07 1.08
0.58 0.57 0.57 0.56 0.55 0.55 0.53 0.52 0.50 0.50 0.50 0.53 0.58 0.63 0.70 0.73 0.76 0.80 0.80 0.78 0.75 0.71 0.68 0.66 0.65 0.62 0.54 0.43 0.35 0.23 0.31 0.36 0.39 0.40 0.37 0.39 0.38 0.35 0.33 0.38 0.42 0.36 0.25 0.22 0.21 0.21 0.22 0.22 0.21 0.23 0.23 0.19 0.21 0.16 0.21 0.16 0.16 0.21 0.16 0.19 0.20 0.18 0.20 0.23 0.21 0.20 0.21 0.21 0.23 0.22 0.22 0.27 0.55 0.41 0.47 0.68 0.87 0.95 0.88 0.85 0.86 0.87 0.86 0.95 1.02 1.08 1.13 1.13
0.59 0.58 0.58 0.58 0.58 0.57 0.56 0.55 0.53 0.50 0.50 0.51 0.54 0.58 0.66 0.70 0.73 0.79 0.82 0.80 0.77 0.72 0.69 0.66 0.67 0.60 0.48 0.49 0.31 0.24 0.42 0.40 0.46 0.43 0.39 0.39 0.37 0.33 0.32 0.30 0.37 0.37 0.29 0.23 0.20 0.22 0.23 0.23 0.24 0.25 0.22 0.17 0.21 0.17 0.19 0.18 0.20 0.21 0.21 0.20 0.19 0.19 0.21 0.23 0.20 0.19 0.19 0.18 0.22 0.23 0.22 0.36 0.51 0.47 0.64 0.75 0.97 0.95 0.83 0.82 0.89 0.91 0.91 0.96 1.06 1.11 1.17 1.15
0.58 0.58 0.57 0.57 0.59 0.59 0.57 0.56 0.55 0.53 0.51 0.50 0.51 0.55 0.60 0.66 0.70 0.75 0.80 0.79 0.77 0.75 0.71 0.66 0.64 0.61 0.53 0.44 0.35 0.30 0.43 0.40 0.41 0.43 0.41 0.38 0.36 0.36 0.35 0.32 0.33 0.39 0.31 0.23 0.20 0.23 0.24 0.23 0.25 0.23 0.16 0.23 0.17 0.22 0.20 0.22 0.20 0.20 0.18 0.14 0.15 0.16 0.16 0.17 0.17 0.17 0.18 0.19 0.23 0.23 0.24 0.32 0.41 0.41 0.74 0.89 0.96 0.91 0.86 0.86 0.92 0.91 0.93 1.00 1.08 1.14 1.15 1.13
0.54 0.54 0.55 0.56 0.58 0.58 0.58 0.56 0.55 0.55 0.53 0.50 0.49 0.51 0.56 0.62 0.67 0.73 0.78 0.79 0.78 0.75 0.72 0.68 0.63 0.62 0.52 0.36 0.38 0.42 0.42 0.41 0.40 0.39 0.39 0.40 0.38 0.38 0.36 0.34 0.32 0.40 0.36 0.25 0.21 0.24 0.26 0.25 0.25 0.21 0.22 0.22 0.20 0.17 0.21 0.22 0.18 0.18 0.17 0.15 0.16 0.16 0.14 0.16 0.18 0.19 0.18 0.19 0.23 0.24 0.20 0.24 0.32 0.53 0.72 0.96 0.96 0.93 0.88 0.90 0.93 0.94 0.96 1.02 1.07 1.10 1.14 1.16
0.51 0.50 0.50 0.51 0.54 0.56 0.56 0.55 0.55 0.55 0.53 0.51 0.49 0.48 0.51 0.58 0.63 0.68 0.75 0.78 0.77 0.76 0.75 0.72 0.68 0.57 0.47 0.36 0.43 0.47 0.44 0.41 0.41 0.38 0.36 0.41 0.35 0.32 0.32 0.33 0.37 0.41 0.39 0.29 0.25 0.28 0.27 0.26 0.24 0.24 0.27 0.21 0.22 0.24 0.21 0.20 0.19 0.14 0.15 0.16 0.15 0.14 0.13 0.16 0.17 0.17 0.16 0.22 0.23 0.27 0.21 0.25 0.35 0.51 0.78 0.97 1.03 0.95 0.89 0.92 0.95 0.96 0.97 1.01 1.06 1.09 1.11 1.13
0.48 0.49 0.48 0.48 0.50 0.52 0.54 0.55 0.55 0.55 0.54 0.53 0.50 0.48 0.47 0.51 0.59 0.65 0.71 0.75 0.78 0.76 0.73 0.72 0.66 0.52 0.40 0.38 0.48 0.47 0.44 0.44 0.34 0.32 0.37 0.35 0.33 0.29 0.28 0.31 0.38 0.40 0.35 0.29 0.27 0.28 0.29 0.26 0.23 0.22 0.20 0.24 0.24 0.19 0.18 0.17 0.16 0.16 0.14 0.12 0.13 0.15 0.16 0.18 0.17 0.18 0.16 0.21 0.24 0.26 0.21 0.28 0.40 0.55 0.82 0.91 0.97 1.00 0.98 0.97 0.96 0.98 0.98 1.02 1.06 1.09 1.11 1.11
0.51 0.50 0.50 0.49 0.49 0.50 0.52 0.53 0.54 0.56 0.55 0.54 0.52 0.49 0.47 0.49 0.53 0.61 0.68 0.75 0.79 0.75 0.71 0.62 0.58 0.53 0.39 0.31 0.37 0.49 0.40 0.33 0.31 0.38 0.37 0.37 0.34 0.28 0.30 0.29 0.38 0.36 0.31 0.26 0.28 0.28 0.30 0.28 0.21 0.20 0.20 0.22 0.19 0.16 0.15 0.16 0.15 0.16 0.14 0.13 0.13 0.14 0.16 0.16 0.15 0.17 0.19 0.25 0.25 0.28 0.23 0.32 0.43 0.63 0.83 0.97 0.98 0.94 0.96 0.91 0.96 1.00 1.01 1.03 1.06 1.08 1.10 1.10
0.51 0.50 0.50 0.50 0.50 0.50 0.51 0.51 0.53 0.55 0.55 0.54 0.53 0.50 0.52 0.49 0.50 0.55 0.66 0.74 0.76 0.76 0.66 0.52 0.57 0.57 0.32 0.42 0.47 0.36 0.34 0.37 0.39 0.35 0.36 0.37 0.36 0.31 0.29 0.30 0.32 0.31 0.29 0.28 0.27 0.28 0.31 0.27 0.24 0.23 0.23 0.19 0.18 0.17 0.14 0.14 0.13 0.14 0.14 0.15 0.17 0.13 0.16 0.13 0.15 0.16 0.18 0.21 0.22 0.26 0.28 0.28 0.48 0.59 0.84 0.92 0.86 0.78 0.71 0.80 0.93 1.05 1.08 1.08 1.08 1.10 1.09 1.08
0.51 0.50 0.49 0.48 0.48 0.49 0.50 0.51 0.52 0.54 0.55 0.54 0.53 0.52 0.48 0.51 0.52 0.55 0.60 0.70 0.75 0.70 0.64 0.63 0.58 0.47 0.36 0.42 0.31 0.34 0.42 0.38 0.37 0.37 0.36 0.37 0.37 0.35 0.29 0.30 0.32 0.30 0.27 0.24 0.27 0.24 0.28 0.25 0.24 0.16 0.17 0.18 0.18 0.17 0.14 0.11 0.13 0.13 0.12 0.15 0.16 0.15 0.16 0.14 0.13 0.15 0.17 0.20 0.23 0.24 0.24 0.36 0.58 0.66 0.70 0.85 0.86 0.76 0.76 0.83 0.88 1.00 1.07 1.11 1.10 1.11 1.11 1.09
0.53 0.52 0.50 0.48 0.46 0.44 0.46 0.49 0.51 0.53 0.55 0.55 0.56 0.54 0.51 0.50 0.52 0.54 0.51 0.58 0.51 0.43 0.37 0.39 0.41 0.26 0.22 0.32 0.36 0.36 0.38 0.41 0.40 0.36 0.32 0.32 0.33 0.35 0.32 0.32 0.33 0.28 0.22 0.20 0.21 0.24 0.25 0.23 0.22 0.16 0.14 0.14 0.16 0.17 0.16 0.17 0.18 0.17 0.14 0.15 0.16 0.13 0.15 0.15 0.16 0.17 0.18 0.18 0.22 0.24 0.22 0.35 0.50 0.56 0.63 0.74 0.80 0.76 0.70 0.81 0.81 0.94 1.02 1.19 1.12 1.09 1.09 1.11
0.55 0.54 0.52 0.50 0.47 0.45 0.43 0.45 0.49 0.52 0.54 0.51 0.53 0.49 0.47 0.34 0.31 0.28 0.42 0.49 0.42 0.38 0.40 0.42 0.44 0.40 0.37 0.35 0.34 0.40 0.41 0.41 0.33 0.34 0.34 0.36 0.33 0.32 0.29 0.29 0.30 0.28 0.23 0.17 0.20 0.21 0.23 0.17 0.15 0.13 0.14 0.15 0.17 0.18 0.18 0.24 0.21 0.18 0.16 0.15 0.15 0.14 0.15 0.17 0.17 0.18 0.18 0.18 0.20 0.25 0.24 0.36 0.44 0.51 0.60 0.71 0.76 0.78 0.79 0.77 0.82 0.87 0.94 1.10 1.18 1.11 1.13 1.15
0.57 0.55 0.53 0.49 0.47 0.45 0.44 0.43 0.48 0.53 0.55 0.52 0.51 0.40 0.26 0.26 0.21 0.17 0.28 0.34 0.44 0.47 0.44 0.46 0.45 0.41 0.38 0.39 0.41 0.38 0.32 0.32 0.36 0.36 0.36 0.39 0.34 0.30 0.26 0.27 0.27 0.22 0.22 0.21 0.20 0.22 0.21 0.16 0.15 0.16 0.17 0.16 0.16 0.19 0.20 0.22 0.21 0.17 0.16 0.15 0.15 0.16 0.16 0.17 0.16 0.17 0.19 0.18 0.19 0.24 0.24 0.36 0.46 0.55 0.63 0.73 0.75 0.74 0.83 0.79 0.81 0.91 1.01 1.10 1.16 1.13 1.11 1.24
0.55 0.54 0.52 0.50 0.47 0.46 0.46 0.45 0.48 0.54 0.59 0.57 0.49 0.36 0.34 0.34 0.42 0.47 0.38 0.26 0.36 0.44 0.46 0.46 0.49 0.42 0.46 0.45 0.43 0.44 0.39 0.31 0.31 0.32 0.37 0.36 0.32 0.25 0.26 0.25 0.24 0.21 0.24 0.23 0.22 0.18 0.16 0.14 0.17 0.17 0.17 0.17 0.17 0.18 0.20 0.21 0.19 0.17 0.15 0.15 0.16 0.15 0.18 0.18 0.17 0.18 0.18 0.18 0.20 0.22 0.25 0.33 0.49 0.58 0.64 0.67 0.72 0.85 0.96 0.91 0.93 0.98 1.00 1.05 1.05 1.04 1.03 1.11
0.54 0.54 0.53 0.51 0.49 0.48 0.49 0.50 0.49 0.53 0.51 0.52 0.45 0.40 0.35 0.45 0.52 0.57 0.48 0.37 0.34 0.46 0.44 0.42 0.39 0.38 0.36 0.44 0.44 0.46 0.33 0.28 0.26 0.30 0.32 0.33 0.30 0.27 0.27 0.24 0.23 0.24 0.24 0.23 0.19 0.17 0.14 0.15 0.18 0.19 0.18 0.16 0.15 0.17 0.19 0.19 0.19 0.17 0.16 0.15 0.14 0.16 0.16 0.14 0.16 0.17 0.18 0.18 0.20 0.20 0.23 0.37 0.53 0.62 0.64 0.69 0.73 0.88 1.00 1.04 1.04 1.08 1.01 0.99 1.02 1.03 0.98 1.00
0.54 0.54 0.53 0.52 0.51 0.49 0.51 0.53 0.54 0.50 0.46 0.47 0.47 0.43 0.50 0.53 0.53 0.50 0.38 0.26 0.25 0.34 0.40 0.39 0.39 0.37 0.34 0.35 0.42 0.40 0.32 0.29 0.29 0.29 0.37 0.32 0.27 0.29 0.27 0.24 0.24 0.24 0.22 0.23 0.22 0.17 0.14 0.17 0.21 0.20 0.18 0.16 0.15 0.15 0.15 0.17 0.17 0.19 0.18 0.16 0.15 0.17 0.16 0.17 0.16 0.17 0.19 0.20 0.22 0.21 0.26 0.42 0.49 0.50 0.54 0.66 0.75 0.78 0.90 0.99 1.00 1.05 1.07 1.07 1.09 1.09 1.09 1.03
0.55 0.54 0.53 0.53 0.52 0.51 0.54 0.56 0.47 0.46 0.51 0.42 0.44 0.49 0.55 0.54 0.54 0.52 0.34 0.27 0.29 0.28 0.41 0.39 0.42 0.38 0.37 0.49 0.47 0.36 0.35 0.32 0.31 0.32 0.35 0.34 0.29 0.27 0.26 0.28 0.26 0.23 0.25 0.26 0.22 0.19 0.17 0.20 0.23 0.20 0.17 0.15 0.15 0.14 0.14 0.16 0.16 0.18 0.20 0.18 0.19 0.18 0.17 0.18 0.18 0.16 0.16 0.16 0.20 0.23 0.22 0.28 0.43 0.48 0.44 0.56 0.64 0.63 0.77 0.85 0.92 0.96 0.96 0.97 0.97 1.01 1.06 1.06
0.56 0.53 0.52 0.53 0.53 0.53 0.56 0.43 0.43 0.48 0.46 0.42 0.47 0.53 0.55 0.55 0.54 0.54 0.35 0.21 0.15 0.23 0.32 0.24 0.38 0.26 0.43 0.36 0.40 0.35 0.35 0.26 0.31 0.33 0.37 0.35 0.37 0.29 0.28 0.25 0.26 0.23 0.26 0.24 0.21 0.21 0.21 0.26 0.23 0.17 0.16 0.15 0.15 0.14 0.15 0.16 0.15 0.16 0.17 0.21 0.20 0.18 0.18 0.17 0.17 0.16 0.15 0.14 0.18 0.23 0.18 0.20 0.37 0.42 0.43 0.50 0.50 0.55 0.67 0.71 0.80 0.88 0.87 0.91 0.94 0.94 0.98 0.97
0.54 0.50 0.50 0.53 0.53 0.55 0.43 0.35 0.55 0.52 0.39 0.41 0.52 0.54 0.56 0.57 0.57 0.52 0.27 0.16 0.12 0.22 0.21 0.31 0.28 0.29 0.34 0.34 0.34 0.34 0.20 0.21 0.32 0.33 0.33 0.36 0.33 0.35 0.25 0.24 0.25 0.29 0.30 0.29 0.23 0.21 0.25 0.25 0.21 0.18 0.16 0.15 0.15 0.14 0.15 0.15 0.14 0.14 0.19 0.19 0.20 0.17 0.17 0.17 0.17 0.16 0.18 0.22 0.21 0.19 0.19 0.21 0.27 0.36 0.44 0.47 0.45 0.49 0.56 0.61 0.72 0.79 0.80 0.79 0.84 0.92 0.94 0.95
0.52 0.48 0.50 0.51 0.53 0.53 0.47 0.51 0.49 0.44 0.44 0.53 0.58 0.57 0.58 0.56 0.58 0.53 0.26 0.10 0.10 0.29 0.21 0.29 0.28 0.41 0.32 0.35 0.33 0.26 0.24 0.28 0.23 0.28 0.32 0.35 0.36 0.31 0.28 0.25 0.24 0.25 0.30 0.27 0.18 0.25 0.27 0.22 0.19 0.17 0.17 0.16 0.15 0.15 0.17 0.16 0.14 0.16 0.19 0.20 0.19 0.19 0.19 0.18 0.17 0.16 0.20 0.18 0.16 0.17 0.18 0.16 0.21 0.32 0.46 0.46 0.41 0.43 0.48 0.55 0.61 0.69 0.72 0.74 0.76 0.84 0.90 0.94
0.48 0.48 0.51 0.52 0.53 0.54 0.56 0.52 0.51 0.45 0.54 0.59 0.58 0.60 0.60 0.61 0.51 0.32 0.18 0.11 0.24 0.25 0.41 0.26 0.39 0.31 0.31 0.34 0.28 0.27 0.26 0.28 0.22 0.27 0.32 0.35 0.35 0.32 0.24 0.27 0.26 0.30 0.33 0.27 0.21 0.28 0.27 0.24 0.21 0.20 0.18 0.16 0.17 0.18 0.19 0.17 0.14 0.18 0.19 0.19 0.21 0.21 0.20 0.19 0.17 0.17 0.19 0.16 0.14 0.16 0.17 0.13 0.15 0.30 0.39 0.52 0.42 0.39 0.39 0.46 0.52 0.60 0.64 0.69 0.72 0.78 0.87 0.95
0.46 0.47 0.50 0.51 0.51 0.51 0.48 0.56 0.49 0.55 0.54 0.56 0.55 0.57 0.58 0.51 0.39 0.22 0.16 0.10 0.31 0.19 0.29 0.34 0.25 0.22 0.31 0.25 0.24 0.25 0.23 0.26 0.29 0.30 0.31 0.29 0.31 0.33 0.30 0.33 0.28 0.28 0.27 0.28 0.25 0.28 0.27 0.28 0.26 0.21 0.19 0.19 0.19 0.19 0.19 0.17 0.17 0.20 0.18 0.17 0.19 0.20 0.20 0.20 0.19 0.18 0.19 0.14 0.14 0.18 0.18 0.15 0.13 0.24 0.28 0.37 0.37 0.40 0.38 0.40 0.50 0.59 0.65 0.70 0.74 0.79 0.84 0.90
0.45 0.46 0.48 0.50 0.42 0.46 0.49 0.43 0.50 0.54 0.55 0.57 0.60 0.55 0.48 0.39 0.25 0.16 0.10 0.17 0.27 0.30 0.35 0.29 0.23 0.29 0.25 0.22 0.20 0.23 0.23 0.26 0.27 0.28 0.27 0.31 0.29 0.29 0.28 0.28 0.31 0.28 0.26 0.25 0.24 0.27 0.28 0.26 0.24 0.23 0.24 0.23 0.23 0.21 0.20 0.18 0.18 0.18 0.15 0.15 0.17 0.18 0.20 0.19 0.18 0.19 0.14 0.12 0.15 0.18 0.18 0.17 0.12 0.22 0.29 0.34 0.36 0.38 0.38 0.39 0.50 0.55 0.55 0.62 0.73 0.79 0.86 0.93
0.46 0.44 0.46 0.45 0.47 0.51 0.40 0.41 0.52 0.55 0.51 0.57 0.55 0.47 0.38 0.20 0.26 0.15 0.12 0.31 0.20 0.28 0.31 0.24 0.27 0.27 0.26 0.26 0.22 0.20 0.21 0.26 0.27 0.26 0.24 0.25 0.25 0.24 0.24 0.22 0.24 0.20 0.19 0.19 0.20 0.26 0.23 0.23 0.25 0.27 0.29 0.26 0.23 0.19 0.18 0.18 0.19 0.16 0.15 0.14 0.14 0.14 0.15 0.13 0.16 0.13 0.13 0.13 0.16 0.18 0.18 0.15 0.14 0.19 0.29 0.38 0.33 0.33 0.36 0.39 0.47 0.55 0.55 0.60 0.70 0.78 0.87 0.94
0.49 0.44 0.43 0.44 0.45 0.44 0.46 0.54 0.55 0.54 0.56 0.55 0.49 0.43 0.28 0.19 0.11 0.17 0.19 0.24 0.22 0.37 0.31 0.38 0.26 0.27 0.27 0.25 0.21 0.21 0.25 0.23 0.26 0.25 0.26 0.27 0.25 0.24 0.25 0.25 0.25 0.22 0.16 0.21 0.21 0.20 0.20 0.23 0.24 0.25 0.25 0.25 0.22 0.15 0.16 0.15 0.16 0.15 0.14 0.13 0.13 0.13 0.12 0.11 0.13 0.15 0.14 0.17 0.23 0.20 0.19 0.14 0.17 0.18 0.27 0.33 0.35 0.38 0.39 0.41 0.54 0.67 0.64 0.62 0.67 0.74 0.84 0.94
0.54 0.49 0.44 0.41 0.44 0.46 0.51 0.54 0.54 0.58 0.51 0.50 0.42 0.33 0.26 0.17 0.15 0.25 0.24 0.28 0.30 0.40 0.40 0.33 0.27 0.28 0.28 0.22 0.21 0.21 0.20 0.26 0.24 0.24 0.26 0.24 0.24 0.22 0.23 0.25 0.25 0.23 0.24 0.22 0.19 0.18 0.14 0.16 0.20 0.22 0.18 0.24 0.22 0.18 0.17 0.15 0.15 0.15 0.16 0.15 0.14 0.14 0.13 0.11 0.13 0.12 0.13 0.15 0.18 0.21 0.16 0.13 0.14 0.18 0.24 0.33 0.40 0.46 0.53 0.56 0.63 0.67 0.74 0.75 0.75 0.79 0.87 0.95
0.57 0.56 0.50 0.48 0.46 0.49 0.51 0.56 0.59 0.59 0.53 0.46 0.35 0.28 0.18 0.16 0.21 0.20 0.23 0.28 0.33 0.34 0.33 0.38 0.27 0.27 0.26 0.26 0.24 0.21 0.23 0.23 0.25 0.24 0.24 0.24 0.22 0.22 0.21 0.22 0.25 0.25 0.24 0.19 0.21 0.19 0.17 0.17 0.19 0.23 0.23 0.23 0.20 0.21 0.22 0.18 0.16 0.16 0.16 0.17 0.14 0.14 0.18 0.14 0.15 0.15 0.14 0.17 0.18 0.17 0.15 0.18 0.16 0.50 0.41 0.38 0.38 0.38 0.43 0.48 0.56 0.64 0.76 0.78 0.78 0.82 0.88 0.94
0.59 0.57 0.58 0.49 0.51 0.55 0.58 0.58 0.60 0.60 0.51 0.40 0.29 0.21 0.19 0.24 0.20 0.29 0.27 0.37 0.35 0.30 0.33 0.32 0.28 0.24 0.25 0.24 0.25 0.20 0.26 0.25 0.24 0.25 0.24 0.24 0.24 0.23 0.24 0.24 0.24 0.25 0.24 0.19 0.21 0.16 0.17 0.15 0.22 0.21 0.26 0.23 0.21 0.22 0.22 0.21 0.13 0.15 0.16 0.13 0.14 0.18 0.18 0.17 0.18 0.20 0.18 0.17 0.16 0.20 0.15 0.23 0.31 0.31 0.43 0.36 0.34 0.35 0.39 0.42 0.49 0.59 0.70 0.77 0.76 0.84 0.93 0.98
0.57 0.58 0.49 0.51 0.53 0.61 0.63 0.66 0.62 0.56 0.49 0.38 0.27 0.20 0.25 0.27 0.34 0.32 0.36 0.33 0.34 0.35 0.33 0.23 0.22 0.23 0.22 0.22 0.21 0.20 0.24 0.26 0.24 0.24 0.23 0.27 0.24 0.25 0.25 0.25 0.28 0.27 0.27 0.25 0.21 0.21 0.16 0.18 0.22 0.20 0.19 0.22 0.22 0.23 0.23 0.21 0.20 0.18 0.14 0.16 0.20 0.23 0.22 0.18 0.13 0.15 0.14 0.12 0.14 0.19 0.15 0.16 0.18 0.17 0.38 0.35 0.30 0.34 0.37 0.40 0.51 0.61 0.65 0.69 0.75 0.81 0.93 0.99
0.54 0.52 0.53 0.51 0.57 0.66 0.65 0.65 0.62 0.53 0.45 0.34 0.24 0.25 0.33 0.26 0.38 0.36 0.39 0.37 0.36 0.36 0.31 0.29 0.25 0.30 0.23 0.23 0.19 0.20 0.24 0.23 0.22 0.24 0.22 0.24 0.22 0.27 0.25 0.25 0.27 0.27 0.26 0.29 0.22 0.22 0.22 0.17 0.19 0.21 0.21 0.21 0.23 0.23 0.19 0.20 0.21 0.20 0.16 0.20 0.16 0.14 0.13 0.17 0.15 0.12 0.10 0.11 0.14 0.21 0.19 0.16 0.19 0.25 0.36 0.30 0.28 0.33 0.37 0.45 0.53 0.57 0.62 0.66 0.74 0.83 0.97 1.06
0.55 0.50 0.40 0.53 0.64 0.66 0.64 0.66 0.57 0.47 0.38 0.28 0.24 0.24 0.31 0.32 0.39 0.37 0.39 0.38 0.38 0.35 0.30 0.33 0.27 0.29 0.28 0.21 0.20 0.22 0.24 0.22 0.23 0.23 0.22 0.23 0.22 0.26 0.26 0.26 0.24 0.27 0.27 0.28 0.23 0.22 0.23 0.17 0.17 0.21 0.21 0.22 0.22 0.19 0.14 0.16 0.20 0.23 0.20 0.18 0.18 0.16 0.13 0.12 0.13 0.16 0.13 0.12 0.12 0.17 0.18 0.15 0.21 0.22 0.35 0.34 0.29 0.36 0.40 0.46 0.52 0.56 0.63 0.69 0.76 0.82 0.91 0.96
0.45 0.42 0.36 0.55 0.65 0.66 0.66 0.62 0.49 0.43 0.34 0.24 0.27 0.27 0.36 0.32 0.36 0.41 0.41 0.38 0.34 0.34 0.32 0.32 0.32 0.29 0.29 0.25 0.22 0.21 0.24 0.25 0.23 0.24 0.25 0.25 0.25 0.29 0.27 0.28 0.24 0.25 0.28 0.26 0.24 0.25 0.20 0.23 0.15 0.17 0.22 0.23 0.16 0.17 0.16 0.16 0.15 0.16 0.17 0.17 0.16 0.17 0.21 0.17 0.15 0.14 0.14 0.12 0.12 0.15 0.16 0.17 0.22 0.26 0.30 0.36 0.35 0.41 0.42 0.45 0.53 0.59 0.67 0.73 0.76 0.82 0.89 0.92
0.47 0.39 0.36 0.58 0.60 0.63 0.60 0.50 0.39 0.34 0.29 0.32 0.32 0.31 0.33 0.31 0.35 0.37 0.40 0.42 0.38 0.44 0.38 0.35 0.32 0.30 0.31 0.24 0.21 0.24 0.23 0.25 0.24 0.24 0.24 0.23 0.25 0.21 0.27 0.26 0.26 0.24 0.27 0.25 0.24 0.24 0.20 0.20 0.17 0.17 0.17 0.18 0.18 0.20 0.19 0.19 0.18 0.16 0.16 0.17 0.17 0.15 0.15 0.12 0.13 0.17 0.18 0.14 0.14 0.14 0.14 0.21 0.27 0.35 0.37 0.43 0.54 0.52 0.52 0.52 0.56 0.62 0.69 0.72 0.77 0.85 0.89 0.90
0.39 0.27 0.33 0.57 0.62 0.60 0.48 0.35 0.34 0.36 0.31 0.27 0.27 0.32 0.30 0.38 0.34 0.35 0.37 0.42 0.42 0.40 0.45 0.39 0.37 0.37 0.32 0.29 0.22 0.24 0.25 0.26 0.25 0.25 0.25 0.22 0.24 0.24 0.25 0.29 0.27 0.27 0.24 0.22 0.22 0.24 0.24 0.20 0.21 0.17 0.17 0.18 0.20 0.23 0.22 0.23 0.20 0.18 0.17 0.16 0.18 0.16 0.16 0.13 0.12 0.14 0.15 0.17 0.24 0.21 0.16 0.16 0.40 0.38 0.36 0.42 0.51 0.53 0.55 0.56 0.56 0.64 0.71 0.74 0.77 0.83 0.90 0.95
0.32 0.29 0.45 0.56 0.58 0.55 0.44 0.31 0.32 0.29 0.27 0.30 0.36 0.34 0.37 0.36 0.34 0.37 0.36 0.41 0.40 0.45 0.40 0.38 0.36 0.33 0.33 0.32 0.23 0.23 0.24 0.24 0.25 0.23 0.24 0.24 0.24 0.27 0.27 0.27 0.28 0.27 0.26 0.26 0.25 0.26 0.27 0.18 0.20 0.19 0.18 0.19 0.24 0.25 0.23 0.23 0.20 0.17 0.17 0.17 0.18 0.16 0.15 0.13 0.13 0.16 0.12 0.16 0.16 0.17 0.14 0.20 0.39 0.44 0.39 0.41 0.51 0.56 0.60 0.61 0.60 0.65 0.71 0.76 0.78 0.82 0.87 0.93
0.33 0.33 0.40 0.53 0.57 0.52 0.36 0.22 0.23 0.26 0.29 0.34 0.36 0.35 0.41 0.37 0.37 0.37 0.39 0.43 0.42 0.41 0.39 0.38 0.37 0.40 0.33 0.34 0.33 0.24 0.25 0.22 0.25 0.24 0.23 0.25 0.23 0.28 0.27 0.26 0.27 0.25 0.24 0.25 0.22 0.26 0.18 0.19 0.19 0.16 0.16 0.17 0.19 0.20 0.19 0.21 0.20 0.17 0.16 0.17 0.19 0.19 0.17 0.16 0.16 0.19 0.13 0.12 0.14 0.13 0.12 0.14 0.37 0.44 0.43 0.41 0.51 0.52 0.55 0.63 0.67 0.65 0.69 0.73 0.76 0.79 0.84 0.88
0.37 0.39 0.39 0.43 0.53 0.49 0.32 0.32 0.31 0.30 0.31 0.32 0.32 0.32 0.35 0.40 0.44 0.45 0.45 0.43 0.48 0.45 0.41 0.37 0.39 0.38 0.34 0.33 0.31 0.32 0.26 0.23 0.22 0.26 0.25 0.25 0.26 0.27 0.27 0.26 0.25 0.25 0.26 0.28 0.27 0.28 0.20 0.19 0.19 0.16 0.13 0.11 0.11 0.11 0.12 0.14 0.16 0.18 0.19 0.18 0.18 0.17 0.16 0.18 0.15 0.17 0.12 0.12 0.13 0.13 0.14 0.30 0.42 0.42 0.41 0.45 0.49 0.52 0.57 0.65 0.72 0.71 0.68 0.70 0.73 0.76 0.79 0.82
0.35 0.28 0.36 0.41 0.45 0.45 0.43 0.46 0.41 0.37 0.34 0.34 0.33 0.36 0.40 0.37 0.45 0.50 0.51 0.46 0.50 0.46 0.45 0.42 0.41 0.39 0.33 0.29 0.27 0.27 0.26 0.26 0.23 0.23 0.24 0.24 0.24 0.25 0.27 0.27 0.25 0.25 0.26 0.28 0.30 0.26 0.23 0.23 0.21 0.21 0.16 0.14 0.15 0.17 0.19 0.20 0.18 0.16 0.17 0.18 0.17 0.17 0.19 0.18 0.15 0.14 0.11 0.12 0.13 0.14 0.16 0.34 0.30 0.36 0.39 0.44 0.47 0.48 0.52 0.61 0.64 0.66 0.69 0.72 0.76 0.80 0.81 0.83
0.47 0.35 0.37 0.33 0.44 0.42 0.41 0.45 0.41 0.42 0.37 0.42 0.33 0.39 0.36 0.39 0.42 0.45 0.54 0.43 0.48 0.46 0.43 0.42 0.38 0.33 0.29 0.29 0.25 0.25 0.26 0.24 0.25 0.24 0.24 0.24 0.26 0.25 0.27 0.27 0.26 0.27 0.29 0.26 0.31 0.25 0.24 0.21 0.20 0.25 0.22 0.21 0.20 0.21 0.23 0.20 0.17 0.18 0.18 0.18 0.19 0.17 0.18 0.17 0.14 0.13 0.15 0.16 0.15 0.16 0.16 0.22 0.29 0.33 0.39 0.44 0.48 0.52 0.56 0.60 0.65 0.68 0.70 0.72 0.76 0.82 0.85 0.89
0.39 0.43 0.48 0.48 0.39 0.34 0.38 0.39 0.45 0.43 0.45 0.45 0.39 0.43 0.39 0.39 0.40 0.38 0.47 0.50 0.51 0.49 0.40 0.39 0.39 0.36 0.35 0.31 0.28 0.25 0.25 0.24 0.24 0.24 0.26 0.28 0.25 0.25 0.24 0.25 0.24 0.27 0.26 0.24 0.30 0.26 0.21 0.18 0.21 0.25 0.28 0.29 0.30 0.27 0.22 0.19 0.18 0.17 0.18 0.18 0.16 0.16 0.17 0.16 0.16 0.19 0.18 0.17 0.14 0.14 0.17 0.18 0.23 0.33 0.38 0.43 0.48 0.51 0.58 0.62 0.67 0.72 0.74 0.78 0.78 0.79 0.86 0.89
0.51 0.49 0.50 0.56 0.40 0.44 0.44 0.45 0.48 0.45 0.44 0.45 0.42 0.43 0.39 0.40 0.39 0.45 0.45 0.46 0.46 0.42 0.44 0.35 0.37 0.37 0.37 0.37 0.34 0.24 0.26 0.22 0.23 0.26 0.27 0.25 0.24 0.23 0.22 0.23 0.26 0.29 0.24 0.24 0.26 0.27 0.24 0.20 0.23 0.21 0.25 0.27 0.27 0.28 0.25 0.20 0.19 0.18 0.17 0.18 0.17 0.16 0.16 0.18 0.18 0.19 0.21 0.18 0.17 0.24 0.24 0.17 0.19 0.23 0.43 0.45 0.52 0.58 0.63 0.69 0.72 0.68 0.68 0.73 0.76 0.78 0.80 0.82
0.43 0.43 0.42 0.53 0.50 0.47 0.48 0.48 0.47 0.46 0.41 0.46 0.39 0.42 0.43 0.42 0.41 0.47 0.51 0.48 0.41 0.44 0.51 0.43 0.39 0.41 0.39 0.34 0.35 0.27 0.33 0.35 0.26 0.25 0.32 0.27 0.25 0.25 0.23 0.23 0.22 0.24 0.24 0.24 0.25 0.30 0.25 0.21 0.24 0.25 0.25 0.25 0.30 0.29 0.29 0.23 0.22 0.19 0.19 0.19 0.19 0.18 0.18 0.18 0.19 0.19 0.20 0.19 0.20 0.22 0.25 0.20 0.30 0.39 0.49 0.52 0.53 0.59 0.61 0.61 0.63 0.68 0.69 0.71 0.74 0.76 0.78 0.81
0.57 0.60 0.58 0.47 0.42 0.45 0.49 0.49 0.46 0.45 0.41 0.44 0.41 0.45 0.46 0.47 0.45 0.51 0.48 0.54 0.49 0.46 0.50 0.41 0.43 0.43 0.41 0.38 0.35 0.36 0.39 0.39 0.37 0.33 0.36 0.28 0.25 0.28 0.24 0.24 0.25 0.22 0.24 0.28 0.26 0.28 0.24 0.27 0.24 0.26 0.23 0.26 0.28 0.28 0.30 0.30 0.24 0.21 0.20 0.19 0.20 0.19 0.18 0.19 0.18 0.22 0.21 0.19 0.19 0.19 0.18 0.19 0.37 0.39 0.43 0.48 0.50 0.51 0.51 0.55 0.62 0.67 0.70 0.72 0.73 0.77 0.81 0.83
0.60 0.64 0.63 0.54 0.41 0.46 0.44 0.48 0.48 0.46 0.39 0.47 0.48 0.48 0.47 0.48 0.52 0.53 0.44 0.54 0.56 0.56 0.53 0.50 0.48 0.44 0.41 0.44 0.38 0.38 0.40 0.42 0.42 0.41 0.39 0.39 0.42 0.36 0.37 0.29 0.26 0.26 0.27 0.28 0.25 0.25 0.21 0.25 0.21 0.22 0.20 0.23 0.29 0.29 0.32 0.29 0.25 0.20 0.20 0.22 0.23 0.23 0.23 0.24 0.23 0.27 0.23 0.21 0.19 0.17 0.16 0.22 0.38 0.40 0.33 0.38 0.44 0.49 0.52 0.55 0.60 0.66 0.72 0.73 0.74 0.78 0.83 0.87
Wind_Speed
28 29 29 30 30 30 30 30 30 30 30 29 29 29 29 29 28 28 28 28 27 27 27 26 26 26 26 26 26 26 27 27 27 27 28 27 27 28 29 28 27 28 29 27 26 25 24 24 24 24 23 23 23 22 22 22 22 21 21 21 22 22 22 21 20 18 17 16 16 16 15 15 15 14 15 16 18 21 21 22 22 21 21 19 18 19 20 20
29 30 30 30 30 31 31 31 31 31 31 30 30 30 30 29 29 29 29 28 28 28 27 27 27 26 25 25 25 26 27 27 28 28 28 27 28 29 29 29 28 27 28 28 27 27 26 25 25 25 24 23 22 22 22 22 22 22 20 21 21 20 20 20 20 19 19 18 17 17 16 15 15 13 14 15 18 19 20 20 21 21 20 19 19 20 21 20
30 30 31 31 31 31 32 32 32 32 32 32 31 31 31 30 30 30 29 29 29 28 28 28 27 27 26 25 25 25 26 26 27 27 26 26 27 28 28 29 29 28 28 27 26 27 27 26 25 25 25 24 23 23 22 22 22 22 21 20 20 19 19 20 21 21 20 20 19 18 16 16 15 14 14 15 17 19 19 19 21 22 21 21 21 22 22 21
31 31 31 32 32 32 32 33 33 33 33 33 33 32 32 31 31 30 30 29 29 29 28 28 28 27 27 26 25 25 24 26 26 25 24 25 25 26 27 28 28 28 28 27 26 26 27 26 25 26 26 25 24 24 23 22 21 22 22 21 19 19 19 20 22 22 21 21 21 19 17 17 15 15 16 16 17 18 19 19 21 22 22 22 23 23 22 21
31 31 31 32 32 32 33 33 33 33 34 33 33 34 33 33 32 31 31 30 29 29 28 28 28 28 27 26 26 25 24 24 24 23 24 24 25 25 26 27 28 28 28 27 26 26 26 26 26 26 26 25 24 25 24 24 22 21 22 22 19 19 19 19 20 22 22 21 21 20 18 17 16 16 16 17 17 17 18 19 20 21 21 22 23 23 22 21
30 30 31 31 32 32 33 33 34 34 34 34 34 34 34 34 33 33 32 31 30 30 29 28 28 28 27 26 26 25 25 24 22 22 23 23 24 25 25 27 28 28 28 28 26 26 26 27 27 26 26 25 25 25 24 24 24 21 21 23 21 20 19 18 19 21 22 22 22 21 19 17 17 17 16 18 18 15 16 18 19 20 20 21 22 22 21 21
30 30 30 31 31 32 32 33 33 34 34 34 35 35 35 35 35 34 33 32 31 30 30 29 28 28 27 27 27 26 28 27 23 22 23 23 24 24 24 26 27 29 29 29 27 26 25 26 27 26 26 25 25 25 24 24 25 23 20 21 22 22 21 20 20 20 22 23 23 21 19 18 18 17 15 17 18 16 17 18 19 20 20 21 22 22 21 20
30 30 30 30 31 31 32 32 33 34 34 34 35 35 35 35 36 35 34 34 33 32 31 30 29 28 27 27 27 27 29 29 26 25 24 23 23 24 24 24 26 29 30 30 28 27 26 26 27 26 25 24 24 25 24 23 24 25 22 20 21 22 21 21 21 20 22 23 23 22 20 19 18 17 16 17 18 18 18 19 20 21 21 21 22 21 20 19
30 31 31 31 31 32 32 32 33 33 34 34 34 35 35 35 36 36 35 35 34 33 32 31 30 29 28 27 28 28 28 27 27 28 26 25 24 24 25 24 26 28 30 30 29 28 26 26 26 25 24 24 24 24 24 23 22 24 24 21 20 21 20 21 21 21 21 21 22 22 21 19 17 16 16 17 18 18 18 19 21 22 22 22 21 21 20 19
32 32 32 32 32 33 33 33 33 33 34 34 35 35 35 35 35 36 36 35 34 34 33 32 31 30 29 28 29 29 26 25 26 27 27 27 26 25 25 25 26 28 30 30 30 29 27 25 25 24 23 23 24 24 25 24 20 20 24 22 21 21 20 20 20 21 21 21 22 22 21 18 16 16 16 17 18 19 19 19 21 22 22 22 21 21 20 20
33 33 33 33 33 34 34 34 34 34 34 34 35 35 35 35 35 35 36 35 35 34 33 33 32 31 31 30 31 29 25 25 26 26 27 27 27 26 26 26 27 29 30 30 30 30 28 26 25 24 22 22 23 24 25 25 20 19 21 21 22 22 21 21 21 21 20 20 21 21 20 18 17 17 16 17 18 19 20 20 21 21 21 21 22 21 20 20
34 34 34 34 34 34 34 35 35 35 35 35 35 35 36 36 35 35 36 36 35 34 34 33 32 32 32 33 33 31 28 28 28 27 28 27 27 27 27 27 27 29 30 30 30 30 29 27 26 25 22 21 22 22 23 25 22 20 20 19 20 21 21 22 21 21 21 20 20 20 19 19 19 18 16 17 19 19 20 20 20 20 20 21 21 20 19 20
35 35 36 36 36 35 35 35 35 35 35 35 35 36 36 36 36 36 36 36 35 34 34 33 33 32 34 34 33 33 32 31 30 29 28 28 28 28 27 27 27 29 30 30 30 30 29 27 27 27 22 21 21 19 20 23 23 21 21 19 19 19 20 22 22 21 21 20 19 19 18 19 20 18 17 19 20 20 21 20 20 20 20 21 21 20 19 19
36 36 36 36 35 35 35 35 35 35 35 35 35 36 37 37 37 36 36 36 36 34 34 33 33 33 35 35 32 33 34 32 31 31 29 28 28 28 27 27 27 29 30 29 29 30 29 27 28 27 24 23 21 19 19 20 21 21 20 20 19 18 18 21 21 21 21 19 20 20 17 17 19 19 18 19 20 20 21 21 21 20 21 21 21 20 20 20
35 35 35 35 35 35 35 35 35 35 35 35 35 36 37 37 38 37 37 37 36 35 34 33 33 33 35 35 32 32 32 32 32 31 30 30 29 28 27 27 27 28 30 29 28 29 29 28 28 27 26 24 21 21 20 19 20 21 20 20 21 18 16 18 21 22 21 19 21 21 17 16 18 18 17 18 19 18 19 21 21 21 21 21 21 21 20 21
34 34 34 34 35 35 35 36 36 36 35 35 35 35 36 37 38 38 38 38 37 36 34 34 34 34 34 32 30 31 31 31 31 30 30 30 30 29 27 27 27 27 29 29 28 29 29 28 28 27 26 25 24 23 21 20 20 21 21 19 20 20 17 16 20 22 21 19 21 22 17 15 17 18 17 18 20 20 19 20 21 21 21 21 21 21 21 21
34 35 34 35 35 35 36 36 36 36 36 36 35 35 35 36 37 38 38 38 38 36 35 35 33 34 34 31 29 31 30 30 29 29 29 29 30 29 28 28 27 28 29 28 28 29 30 29 28 27 26 25 25 24 23 22 22 21 21 19 19 21 18 16 19 22 22 20 21 22 18 14 16 18 19 20 22 22 21 20 20 20 21 21 21 21 21 21
35 35 35 35 36 36 36 37 37 36 36 36 35 35 35 35 36 36 37 37 37 36 35 35 34 33 32 32 32 30 29 30 30 30 30 29 30 30 29 28 28 29 29 29 29 30 30 29 28 27 27 27 27 26 25 23 22 22 22 20 18 20 19 17 17 20 23 22 21 23 20 14 15 18 19 21 21 21 21 20 19 19 20 21 22 22 21 21
36 36 37 37 37 37 37 37 37 36 36 35 35 35 35 34 34 35 36 38 37 35 35 35 36 34 29 29 31 30 29 30 31 31 31 30 31 31 30 29 29 30 31 30 30 31 30 28 29 29 29 29 29 28 26 21 21 22 22 21 18 19 20 17 16 18 22 22 21 22 20 16 16 18 19 20 21 21 21 22 20 19 20 20 21 22 21 21
36 37 37 37 37 37 37 37 37 36 35 34 34 33 33 33 33 34 36 39 39 38 36 35 37 37 33 29 29 28 29 30 31 32 31 31 31 31 31 30 30 31 31 30 30 31 30 29 30 31 30 31 30 29 26 21 20 21 21 21 19 18 20 18 16 18 21 21 21 22 20 18 17 18 19 20 22 22 21 22 21 21 21 20 20 21 20 20
37 37 37 37 37 37 37 36 36 35 34 33 33 32 32 32 33 33 34 38 41 41 40 39 38 39 37 33 30 28 29 30 31 32 32 32 32 32 32 32 31 31 31 31 29 30 31 30 31 31 30 30 30 29 26 22 21 21 21 21 20 18 18 18 17 18 21 21 20 21 19 18 18 17 19 20 21 22 21 22 22 23 23 20 18 19 18 17
36 36 37 37 36 36 35 34 33 33 32 32 32 32 32 32 32 32 32 35 38 41 42 41 41 40 38 36 34 31 31 31 32 33 34 33 34 33 32 33 32 30 31 31 29 29 31 30 31 32 30 29 29 29 27 24 22 21 20 21 20 19 16 17 18 17 21 20 18 21 20 18 18 17 18 20 21 21 22 22 22 23 22 19 18 18 18 17
36 36 36 36 35 34 33 31 30 30 30 29 30 31 31 30 31 32 33 33 35 37 40 40 41 41 38 37 35 33 34 34 33 34 35 35 36 34 33 33 32 31 32 33 31 30 30 30 30 31 30 29 29 29 27 25 23 22 21 20 20 20 17 17 19 18 21 20 18 22 21 17 18 18 18 20 20 21 20 21 21 22 21 19 18 18 18 18
35 35 35 35 34 32 30 28 27 27 27 28 29 29 28 28 29 31 32 33 33 35 38 39 39 40 39 36 35 36 35 35 34 35 36 37 36 34 33 33 33 31 32 34 32 30 29 29 30 30 29 29 28 28 28 26 24 23 23 21 19 21 18 15 18 19 20 19 18 21 20 18 19 20 20 19 20 21 20 20 21 21 21 20 18 17 16 17
35 35 35 33 31 28 25 23 22 23 23 25 26 26 26 26 27 29 29 31 32 33 35 37 37 38 39 37 35 36 35 35 36 36 36 38 37 34 32 32 32 32 33 34 32 30 29 29 30 30 30 30 29 28 29 27 24 24 25 23 18 19 19 15 17 20 19 20 21 22 20 18 20 21 21 21 21 22 22 22 22 21 21 20 18 18 16 16
35 35 33 29 25 22 19 18 17 18 19 20 21 22 23 24 26 27 26 27 29 30 31 34 34 34 37 38 36 35 34 36 37 36 37 37 37 34 31 32 31 31 33 32 30 28 28 29 30 31 30 31 29 28 29 28 24 23 25 25 19 18 20 17 18 20 19 18 21 23 20 17 20 22 22 22 23 23 23 23 23 22 21 21 19 18 18 17
35 33 28 23 19 15 14 14 13 13 15 15 16 17 19 20 23 24 23 23 26 27 29 31 32 31 34 37 37 35 32 33 36 37 39 38 37 35 32 32 31 30 31 31 29 28 29 30 30 31 31 30 29 28 29 29 25 21 23 26 22 19 20 19 19 20 17 16 19 23 22 17 19 22 23 23 23 24 24 24 23 23 22 22 21 20 20 19
32 28 22 17 13 11 11 10 10 10 11 11 11 13 14 17 20 21 21 20 20 22 25 29 30 30 32 34 39 37 29 30 35 37 39 38 37 35 32 33 32 31 32 31 29 27 28 30 31 31 31 29 29 27 28 29 25 20 21 26 24 21 21 20 20 20 17 17 19 23 24 20 18 20 22 23 24 24 25 25 24 24 23 23 21 21 21 20
28 24 17 13 9 8 8 7 7 8 8 8 9 9 11 15 18 18 19 18 17 17 20 25 29 30 32 34 39 39 31 30 33 35 38 38 37 34 31 32 33 31 32 32 28 24 27 30 30 30 29 28 29 27 27 29 25 19 20 24 23 22 22 21 20 19 18 20 21 21 24 23 18 19 21 22 24 24 23 24 24 24 24 23 22 22 22 21
26 21 14 10 7 5 5 5 6 6 6 7 8 8 12 16 16 16 17 17 16 15 16 22 28 31 34 34 37 39 34 30 31 34 38 38 37 35 30 31 33 30 30 31 28 24 26 29 29 29 29 27 27 26 27 29 25 21 21 22 22 22 22 21 21 19 18 21 23 22 23 24 20 19 22 23 24 24 24 23 23 24 24 24 23 22 22 22
23 19 13 8 5 3 3 3 4 5 6 8 8 9 13 15 14 14 14 14 14 13 14 21 27 30 34 35 35 38 36 31 33 36 37 36 36 35 32 31 32 30 29 31 30 25 26 29 28 28 28 27 27 26 27 28 26 23 22 23 22 22 21 21 21 21 19 20 23 23 23 23 22 19 20 23 24 24 24 24 24 25 25 24 24 22 22 23
21 17 12 7 4 1 2 2 2 4 7 10 10 11 12 13 13 13 11 11 13 11 13 20 26 29 33 34 34 37 36 31 34 37 36 37 36 35 35 33 33 32 31 32 31 27 27 29 28 28 28 28 27 26 26 27 27 25 24 24 23 22 21 22 22 22 21 19 20 23 23 23 23 19 17 21 24 24 24 23 23 25 26 25 24 23 23 24
20 17 12 8 4 1 1 2 5 7 10 12 11 10 11 11 12 11 9 10 10 10 12 18 25 29 32 33 34 37 34 31 35 37 36 36 34 34 35 34 34 32 30 32 31 27 27 28 29 29 28 29 29 27 27 28 28 28 26 26 25 22 22 23 22 22 22 20 19 21 22 22 22 21 19 19 20 20 21 21 22 24 25 25 24 24 24 25
17 15 13 9 6 3 2 5 8 10 11 11 9 9 11 10 9 9 9 8 6 8 12 16 24 29 31 32 33 36 33 31 35 36 35 36 34 34 35 35 36 32 29 31 30 28 28 27 30 30 28 30 31 28 27 27 28 28 26 25 25 23 21 22 22 22 23 21 20 21 21 21 21 20 18 18 17 17 19 20 20 22 24 25 25 25 24 25
14 13 12 10 8 6 6 8 10 10 10 8 7 9 11 8 7 8 8 6 4 6 10 16 24 28 29 30 33 37 32 29 35 35 34 36 34 34 35 34 37 34 30 30 28 29 28 24 29 31 27 30 31 28 27 27 27 27 26 25 25 23 21 20 19 19 21 21 20 21 21 19 18 18 17 17 18 18 19 20 21 22 23 24 25 25 24 25
11 10 10 9 8 7 8 8 9 9 7 6 6 9 9 7 7 8 7 5 4 5 9 17 25 27 28 28 32 37 31 28 35 34 32 34 33 34 34 32 35 35 31 30 27 28 26 23 28 30 26 29 31 28 27 27 25 25 27 26 23 22 20 20 18 16 19 21 19 20 22 20 18 18 18 18 19 19 20 21 22 23 24 25 25 25 25 25
9 8 8 8 8 6 6 6 6 6 6 6 6 7 7 7 8 8 6 4 4 6 9 17 24 25 27 28 31 36 32 29 34 32 31 33 31 33 34 32 35 35 31 29 26 26 24 22 27 29 26 29 30 28 27 27 24 24 26 25 21 19 19 19 19 18 20 21 18 19 22 22 20 19 18 20 20 20 21 22 23 23 25 26 25 25 25 25
7 6 6 7 6 5 5 5 5 5 5 6 5 5 7 8 7 6 5 4 4 7 10 15 21 23 26 29 32 35 32 30 33 31 30 31 29 32 34 32 34 35 32 29 26 25 23 21 25 28 26 27 29 27 27 28 26 24 25 25 23 21 20 20 20 19 21 21 19 20 22 22 22 19 18 20 22 21 21 23 23 24 25 25 25 25 26 26
6 5 5 5 5 5 5 5 5 5 5 5 5 5 6 6 6 5 5 5 5 8 11 15 19 21 24 28 31 34 31 30 32 30 29 29 28 31 33 30 33 35 32 29 26 26 24 20 23 27 26 26 27 28 28 29 27 24 24 25 24 22 21 22 21 19 20 20 19 19 20 21 21 20 18 19 21 22 22 23 24 24 25 25 25 26 26 26
5 5 5 4 4 5 6 5 6 5 5 5 4 5 5 4 4 4 5 6 6 9 13 14 18 20 23 27 31 31 28 29 31 28 27 28 27 30 33 31 32 34 32 30 26 26 25 20 21 26 27 26 27 28 29 28 28 27 25 25 25 22 19 21 22 20 19 19 18 18 18 18 19 18 18 18 19 21 22 23 23 24 25 25 25 26 26 26
5 5 6 5 5 6 6 5 5 5 5 4 4 4 3 2 3 4 6 8 8 11 15 15 17 19 21 26 30 30 26 27 30 27 26 28 26 27 32 32 33 33 32 30 27 26 25 22 21 25 27 26 26 27 28 27 28 28 25 24 25 23 20 20 21 21 19 18 17 17 17 16 16 16 17 17 18 20 22 23 23 24 26 25 26 26 26 25
6 7 8 8 7 6 5 4 5 4 4 4 3 2 1 1 3 4 6 8 9 12 16 16 18 20 20 24 28 29 25 25 28 26 25 28 26 25 30 33 33 33 31 29 27 25 23 22 22 24 26 25 23 25 27 26 27 28 26 25 24 24 24 22 20 20 20 18 16 16 15 14 13 14 16 18 18 19 22 23 23 24 26 26 26 26 26 25
9 9 9 8 7 6 4 4 4 4 3 2 1 0 1 2 3 4 6 8 10 13 16 17 19 20 21 22 25 28 26 24 25 25 24 27 25 24 30 34 33 33 31 28 27 26 23 22 22 22 24 24 21 23 25 25 26 27 26 26 25 24 25 23 20 19 21 20 17 15 14 13 11 12 15 18 19 20 21 22 23 24 25 25 25 26 26 25
10 9 8 8 7 6 5 5 4 3 2 2 1 0 1 3 4 5 7 9 12 14 15 17 18 19 21 22 22 25 25 23 23 24 24 25 23 23 29 35 34 32 31 28 28 27 24 23 23 22 22 23 22 23 26 27 28 27 26 26 25 25 25 23 20 19 21 22 21 17 14 12 11 11 15 19 21 21 21 21 22 23 24 24 24 24 25 25
10 10 9 8 8 7 6 6 5 4 4 2 2 1 2 4 5 7 8 10 12 14 14 16 17 18 20 22 21 22 23 22 22 23 23 24 22 22 28 34 34 31 31 29 28 27 24 23 24 23 22 24 24 24 26 28 28 26 26 28 27 27 26 23 21 20 20 22 23 20 15 11 11 12 16 19 21 22 21 21 22 23 23 23 23 24 25 25
10 10 10 9 8 7 6 6 6 5 5 4 3 3 4 5 6 8 10 11 13 14 14 15 16 17 20 23 22 22 21 21 21 21 23 23 21 22 27 32 32 30 30 29 28 26 23 23 24 22 21 22 23 23 24 26 28 27 27 28 28 27 26 24 22 21 21 20 21 22 18 12 11 13 15 18 21 21 22 22 22 22 23 23 22 23 24 25
10 10 10 10 8 7 7 6 6 6 5 5 4 5 5 6 8 10 12 12 12 14 15 15 16 17 20 23 23 21 21 21 21 21 22 21 20 22 27 30 30 29 28 28 29 26 22 23 25 22 19 19 19 20 23 26 27 27 27 27 28 28 27 26 24 21 21 20 20 22 22 16 12 13 14 17 19 20 21 22 22 22 23 23 22 22 23 24
11 10 10 10 9 8 8 7 6 6 5 5 6 7 8 8 9 10 12 11 12 13 14 15 16 17 19 21 21 21 21 21 21 20 21 21 21 23 26 27 27 27 28 28 28 26 22 22 24 22 18 16 16 18 22 25 26 27 27 27 28 29 29 28 25 22 21 20 18 19 23 22 17 14 15 16 17 19 20 21 21 21 22 22 22 22 22 23
10 10 10 10 9 8 8 8 7 7 7 7 8 9 10 9 9 10 11 11 12 13 13 13 15 16 18 20 20 21 21 20 20 20 19 21 22 23 25 26 25 26 28 27 26 25 21 20 22 22 19 17 16 18 21 24 25 26 27 28 28 29 29 28 27 25 23 21 19 17 20 22 19 15 16 16 16 17 18 19 20 21 21 22 22 23 23 23
11 10 10 10 9 9 9 9 9 9 9 10 11 11 11 10 10 11 12 12 13 14 12 12 13 14 16 19 20 20 19 18 19 20 20 21 22 22 23 24 24 27 28 26 24 24 21 18 20 21 19 17 17 17 19 23 24 25 27 27 28 29 29 28 27 26 24 23 21 18 18 20 18 16 17 17 17 17 18 19 20 21 21 22 23 23 23 24
12 11 11 11 10 10 11 11 11 12 12 13 12 12 11 11 11 12 13 12 13 13 11 11 12 13 15 17 19 19 17 16 17 19 18 18 19 20 21 22 24 26 26 25 23 24 21 18 19 21 19 17 17 17 18 21 23 24 26 27 28 28 27 27 27 26 25 24 23 21 20 19 18 17 18 18 18 19 19 20 20 21 21 22 23 23 24 24
13 12 11 10 10 10 11 11 12 13 13 12 12 11 12 12 12 12 13 12 12 11 10 10 11 13 15 16 16 17 17 16 15 16 16 16 17 17 17 20 24 25 24 23 23 23 22 18 18 21 19 16 17 16 17 19 21 23 24 25 26 27 26 25 25 24 25 24 22 22 21 18 17 18 18 19 20 21 21 21 21 21 21 22 23 23 23 24
Wind_Direction
280 278 276 274 271 270 268 267 266 266 265 264 263 262 261 260 260 259 259 258 258 259 259 260 260 261 260 259 258 256 256 254 251 248 244 242 240 238 236 235 236 234 232 234 234 233 232 230 230 229 230 231 233 234 231 232 232 232 233 234 236 236 236 236 233 233 235 232 226 228 236 243 250 248 240 237 234 232 227 224 222 218 218 219 209 199 198 200
281 279 276 274 272 270 269 268 266 265 264 264 263 261 261 261 260 259 258 258 257 257 258 259 260 260 260 259 258 257 256 252 251 248 244 242 240 238 236 235 235 233 230 232 233 232 231 230 228 227 229 230 231 231 229 230 230 231 232 233 235 236 236 234 233 233 234 233 232 234 238 243 248 244 237 235 230 225 223 219 216 212 210 207 201 199 198 197
281 279 277 275 273 271 269 268 267 265 264 263 262 261 261 260 260 259 258 257 257 257 257 258 258 259 259 258 258 258 255 252 249 245 241 241 239 237 235 233 233 231 229 231 232 231 231 231 227 226 229 230 229 228 229 229 229 231 232 233 235 236 235 233 234 234 234 234 235 236 239 243 242 237 236 236 229 222 221 217 212 210 206 203 201 199 196 196
281 279 277 275 273 271 269 268 267 266 264 263 262 261 260 259 259 258 258 257 257 256 256 257 257 258 258 257 257 256 253 251 244 237 238 239 237 236 234 232 231 229 228 230 231 230 230 230 227 226 228 230 229 228 229 227 228 231 231 233 236 235 235 234 232 232 233 232 234 236 239 242 239 236 236 234 229 223 221 216 211 208 203 201 200 198 198 198
282 280 278 276 274 272 270 268 267 265 264 263 262 260 259 258 258 258 257 257 256 255 255 255 256 257 257 257 255 252 249 247 239 233 237 237 236 236 235 232 230 228 227 228 229 228 228 227 226 226 228 229 228 228 229 226 228 232 231 234 235 234 234 233 230 230 232 232 232 234 238 241 239 238 237 233 230 224 219 212 208 206 200 198 198 199 200 201
283 281 279 277 275 273 271 269 267 266 264 263 262 261 259 258 257 257 256 256 255 254 254 254 255 255 255 256 253 248 243 241 238 235 235 235 235 236 235 233 229 226 225 225 225 225 225 224 224 225 227 228 227 228 228 225 227 231 232 233 233 233 234 231 230 230 230 231 231 233 237 240 239 240 238 232 228 223 216 208 204 203 196 195 197 198 200 201
285 283 281 279 277 274 272 270 268 266 264 263 262 261 259 257 256 255 255 255 254 253 253 253 254 253 254 255 250 244 240 241 240 236 235 236 235 236 236 233 227 224 223 222 222 222 223 222 222 224 225 227 227 226 226 224 226 230 232 231 231 233 233 233 233 232 231 231 231 233 236 237 238 239 237 231 224 218 213 207 202 198 195 195 196 197 198 199
286 284 282 280 278 276 274 271 269 267 265 263 262 261 259 258 255 254 253 254 253 253 252 251 252 251 252 252 248 244 241 241 239 236 237 237 236 236 236 232 226 223 221 221 220 220 221 220 221 222 224 226 225 224 223 224 226 229 230 230 230 231 232 233 234 233 232 231 230 232 235 235 237 238 236 228 218 213 209 204 198 195 195 197 196 197 197 199
286 284 282 280 278 276 274 272 270 268 266 264 262 261 259 258 256 253 252 252 252 252 251 250 250 249 249 248 246 244 241 239 239 237 237 238 238 237 234 231 226 222 221 220 219 219 219 220 220 221 225 225 223 222 221 224 227 227 227 229 229 229 231 232 231 231 230 229 228 229 232 233 232 232 230 221 212 209 204 199 196 195 196 196 196 196 196 197
286 284 282 280 279 277 275 273 271 269 267 264 262 261 259 258 256 253 251 251 251 250 250 249 248 248 246 244 243 242 239 238 238 236 237 238 238 237 234 231 228 223 221 220 218 218 218 220 219 221 226 225 222 223 221 223 227 225 225 227 229 230 231 231 230 229 228 228 226 226 230 230 225 225 223 212 208 205 199 196 197 197 196 196 195 195 196 196
286 284 282 281 279 277 275 273 271 269 267 265 262 260 259 257 256 254 250 249 250 249 249 248 247 245 243 241 240 239 237 237 237 237 238 238 237 236 234 232 229 224 221 220 218 217 217 219 219 219 224 223 221 222 222 222 225 223 223 226 229 231 231 230 229 227 225 225 222 223 228 227 220 221 219 207 203 201 197 197 198 197 196 196 195 195 197 196
287 285 283 282 280 278 276 273 272 269 268 265 263 260 258 257 256 254 250 248 249 248 248 247 245 243 242 241 239 237 238 239 240 240 238 237 235 234 233 232 228 223 221 219 218 216 217 218 217 216 220 220 218 221 222 220 222 222 222 225 226 227 230 228 226 223 221 220 218 219 224 223 218 217 214 204 199 198 197 197 196 195 195 195 194 195 196 196
289 287 285 283 281 279 276 274 272 270 268 266 263 260 258 256 255 253 249 247 247 247 246 246 244 242 241 240 238 238 241 241 242 241 238 235 233 231 230 229 226 222 220 219 217 215 216 218 216 216 219 219 216 218 219 216 219 221 221 225 223 224 228 224 220 220 219 218 214 214 219 218 212 212 209 202 199 197 197 196 194 194 194 194 193 195 196 195
291 289 287 284 281 279 277 275 273 271 269 267 264 261 258 256 254 252 249 246 244 244 244 244 243 242 241 241 240 241 241 240 240 239 236 232 230 228 227 225 223 220 217 218 217 214 214 216 216 217 218 219 218 216 216 214 217 218 217 222 223 226 224 216 215 215 214 213 211 213 220 215 206 206 206 203 202 200 198 195 193 193 194 194 194 195 195 195
293 291 288 286 283 280 277 275 273 271 269 267 264 262 258 255 253 251 248 245 242 242 242 243 243 242 243 242 239 239 238 235 235 235 233 229 227 226 224 221 219 217 214 215 216 213 212 213 214 216 215 217 217 214 214 214 215 215 215 218 220 223 217 210 212 213 211 210 209 211 218 214 204 201 202 203 203 203 201 195 193 194 194 195 196 196 196 197
295 292 290 288 284 281 278 275 273 270 268 267 265 262 259 255 252 250 247 243 241 241 241 242 241 240 243 240 234 234 232 229 230 230 229 226 224 223 220 218 216 214 212 212 214 212 211 212 214 215 214 214 215 213 213 213 213 213 215 217 215 215 215 210 210 211 211 210 208 210 217 216 205 200 200 202 200 201 203 199 197 197 194 196 198 197 197 198
296 294 291 289 286 282 279 276 272 270 268 266 264 262 259 255 252 248 245 240 239 239 239 240 240 239 241 237 233 232 228 226 227 227 226 223 221 220 218 215 213 211 209 209 210 210 210 211 213 214 214 214 213 212 212 212 212 210 213 216 213 212 214 210 206 208 210 211 208 208 216 216 203 202 203 203 203 203 203 201 203 203 197 196 198 198 198 199
296 294 292 290 287 283 280 276 272 269 267 265 263 261 258 255 250 246 241 237 237 237 237 237 236 237 238 233 231 230 227 226 227 226 225 221 219 217 215 213 210 208 206 207 208 208 209 211 212 212 213 212 211 211 212 212 211 208 209 212 211 211 213 209 205 206 207 210 209 206 212 213 202 204 205 202 204 204 202 202 207 209 203 198 198 200 199 201
297 295 293 291 288 285 281 277 273 270 266 264 262 259 257 253 248 243 238 234 233 234 235 233 229 232 236 230 227 227 227 227 226 224 222 218 215 213 213 212 209 206 205 207 208 207 208 209 211 212 212 211 210 210 211 212 211 208 207 210 211 210 211 209 205 205 205 208 208 207 211 210 204 206 205 202 203 203 202 203 204 205 204 200 199 201 202 203
298 296 294 292 290 287 283 278 273 269 266 262 259 257 254 250 246 241 236 233 233 234 235 233 228 231 235 232 227 226 227 224 222 219 217 215 212 209 209 209 207 206 207 207 207 207 207 210 211 212 212 210 209 209 211 213 211 208 208 210 212 209 208 207 206 206 207 208 207 207 209 207 205 205 202 201 203 203 202 202 203 201 200 201 200 200 202 204
299 297 295 293 292 289 284 278 272 268 264 260 256 253 251 247 245 241 235 233 234 234 235 235 232 232 233 233 230 226 224 221 219 217 214 212 209 207 207 207 206 207 207 206 205 206 208 212 212 211 211 209 208 209 211 213 210 208 209 209 210 209 207 206 207 207 206 209 208 206 208 205 203 203 200 201 203 204 202 200 203 202 200 202 201 200 205 207
301 299 297 296 294 291 286 278 271 266 262 258 253 250 249 247 244 241 237 235 233 232 234 234 233 233 231 231 229 223 220 219 218 216 212 209 208 207 205 206 207 206 205 204 204 205 209 213 212 209 210 208 206 208 209 210 209 209 210 209 209 207 205 203 207 207 204 208 208 203 206 204 201 202 201 202 203 203 202 201 203 202 201 204 204 206 211 213
304 302 300 298 295 292 286 278 270 265 260 255 251 249 249 246 243 239 237 236 235 232 231 230 230 230 228 227 224 218 217 217 215 213 208 207 208 207 205 205 206 205 204 205 205 205 208 212 209 206 206 204 204 206 207 209 209 210 209 208 208 205 205 207 207 206 204 209 210 202 204 204 202 204 203 204 205 202 201 203 205 204 203 204 207 211 214 215
309 306 303 300 296 292 285 277 269 262 256 251 249 248 246 244 240 236 234 234 235 232 229 227 226 226 224 223 219 214 215 214 212 210 206 205 206 205 206 205 204 205 205 205 206 207 209 209 205 203 202 202 204 205 206 208 208 210 208 208 207 203 207 210 203 201 202 208 209 200 203 208 205 207 206 205 206 205 204 204 205 206 206 206 208 212 215 214
313 309 306 302 297 291 283 275 267 259 254 249 247 246 242 239 235 232 230 232 233 231 228 225 224 224 221 218 214 211 213 213 210 208 205 204 204 203 205 205 205 206 205 204 206 209 210 206 202 202 204 204 205 205 206 207 207 209 209 208 207 202 204 204 198 199 203 208 207 203 207 210 208 209 208 207 207 207 207 207 208 208 207 207 208 210 213 212
316 312 308 302 297 290 280 272 264 256 250 245 245 243 238 235 230 227 226 230 232 227 223 220 219 219 215 212 209 207 213 212 208 207 204 204 204 203 204 204 206 207 203 202 206 210 208 203 201 203 203 204 205 207 206 206 208 209 208 207 208 203 202 202 200 201 205 208 206 207 212 210 208 211 209 207 208 208 209 210 211 211 210 212 210 209 211 210
320 316 311 304 296 287 276 270 262 252 245 242 243 239 234 229 222 219 219 226 229 222 217 215 213 212 209 207 202 202 210 206 201 204 204 203 203 204 205 203 204 205 201 200 205 208 205 201 201 201 201 203 205 207 205 204 208 210 204 204 207 206 203 205 205 206 210 210 205 208 215 217 213 213 210 208 209 209 210 211 212 211 213 215 213 211 212 211
325 322 316 307 295 284 275 267 255 245 240 239 237 230 225 216 208 207 211 219 220 212 212 212 210 208 205 201 198 201 204 198 197 201 200 201 202 203 205 203 201 202 199 199 202 204 202 200 199 199 201 204 205 205 202 202 207 207 200 201 206 206 206 207 209 211 215 214 209 209 213 220 218 209 208 209 210 211 211 211 212 212 213 215 215 214 214 211
334 331 324 314 300 285 269 256 246 238 232 228 222 217 207 196 193 198 207 213 208 204 208 206 205 203 200 198 198 200 201 197 199 197 195 199 202 202 205 202 200 199 198 201 203 203 203 202 200 199 202 204 205 204 200 201 206 203 198 200 204 207 209 210 211 214 216 216 214 208 208 217 219 207 207 211 212 212 212 212 213 213 213 215 215 215 214 212
343 341 334 323 307 287 261 243 235 229 222 209 199 195 185 180 183 194 203 206 199 200 205 201 199 198 195 195 196 197 198 197 196 192 192 197 199 201 203 200 199 199 198 202 206 205 202 201 201 202 204 204 203 202 199 201 205 200 197 200 202 206 209 210 213 216 217 216 217 211 207 215 220 212 211 213 213 213 214 214 214 213 213 215 215 214 212 211
350 350 348 340 324 292 246 225 220 216 203 186 174 170 172 175 186 193 195 196 195 198 202 197 194 193 192 192 192 193 195 195 191 189 191 193 195 198 198 196 196 197 197 201 204 202 197 198 201 202 204 203 200 199 199 202 203 200 200 200 200 203 206 210 212 214 218 218 217 213 209 214 219 216 213 214 214 215 217 217 216 214 214 214 214 212 210 208
356 358 0 360 357 318 223 202 182 178 170 165 159 158 166 174 187 192 185 185 191 197 201 195 190 189 189 190 190 190 192 193 190 190 190 191 193 196 196 195 194 194 196 198 198 198 197 198 199 199 201 200 197 197 198 201 202 201 201 200 199 200 203 209 211 212 217 217 214 211 210 214 219 221 217 211 211 214 217 218 217 214 213 212 212 209 207 205
0 5 10 12 13 27 191 161 153 150 148 153 154 158 170 174 180 186 180 173 181 194 200 195 188 186 186 188 188 187 189 191 189 189 190 190 193 195 197 198 196 196 196 195 195 195 195 198 198 198 200 200 199 199 198 199 200 201 202 200 201 202 203 208 209 210 213 212 210 210 212 217 221 222 218 210 210 214 216 218 219 215 211 209 209 207 205 203
5 11 19 28 35 59 109 136 146 145 145 154 157 161 174 177 170 171 166 158 167 190 196 191 185 183 184 187 185 184 187 188 186 187 188 190 192 194 196 197 196 197 195 193 196 195 193 198 199 198 198 198 200 201 199 198 199 202 202 202 205 206 206 208 210 210 211 210 208 208 212 218 219 219 216 212 215 218 216 217 218 213 208 207 207 205 203 202
7 15 24 37 49 69 103 124 137 144 148 155 163 167 174 177 161 150 153 160 176 196 199 191 182 180 182 184 182 183 186 185 185 187 189 190 193 193 194 195 195 196 194 192 195 195 196 199 196 196 198 196 198 201 198 196 199 201 202 205 208 210 209 209 213 213 210 212 212 211 215 219 218 219 218 216 217 217 216 215 213 210 205 204 205 204 202 202
8 18 27 40 49 68 101 120 133 146 154 155 166 174 177 171 153 145 149 168 184 192 193 185 179 178 178 180 181 183 187 186 184 186 189 190 193 193 193 194 193 194 193 191 192 193 196 196 191 192 197 196 197 199 197 196 198 199 202 206 207 210 211 208 209 210 210 216 218 214 217 219 220 222 218 216 217 215 214 212 210 208 204 202 202 202 202 201
6 16 29 39 44 63 97 120 136 147 153 154 164 173 170 160 151 147 154 174 183 181 181 176 176 178 177 178 180 181 184 183 183 186 187 189 192 192 192 193 193 193 193 191 191 192 192 190 189 191 194 195 197 197 198 200 200 199 202 202 200 206 212 209 207 207 210 218 218 214 217 219 220 222 216 213 216 214 211 210 208 206 203 201 201 200 199 197
2 11 25 36 41 62 98 120 136 142 141 149 162 165 159 157 155 156 170 188 183 176 177 175 176 178 177 177 178 179 180 181 182 186 186 187 191 191 191 192 192 193 193 191 191 192 191 187 189 193 191 192 195 196 199 203 205 205 204 201 201 207 211 209 210 209 210 217 220 218 220 220 219 219 215 213 214 212 210 208 206 205 203 202 199 198 196 195
3 13 21 30 44 73 99 110 120 131 139 144 147 147 149 157 167 178 194 200 186 177 177 174 173 175 176 176 175 177 180 181 182 184 185 187 189 190 190 189 189 191 191 191 191 192 193 189 189 193 191 189 193 198 200 200 202 205 204 203 206 211 212 210 212 213 212 216 221 220 219 221 220 219 217 215 212 210 208 206 205 204 202 201 198 197 196 196
16 20 28 42 71 88 93 101 109 115 131 138 135 146 157 167 181 199 203 194 185 179 176 170 168 169 172 173 174 177 180 181 182 183 185 186 185 187 191 189 187 189 189 190 191 190 193 193 188 190 190 191 196 200 200 199 198 201 203 202 204 208 210 209 210 214 215 217 219 219 221 223 221 219 219 217 211 208 207 205 205 203 200 200 199 197 196 196
31 35 48 68 92 94 89 102 109 103 116 130 136 156 168 191 216 220 202 188 180 178 176 173 171 169 169 172 173 175 178 179 182 184 185 185 185 187 190 189 187 187 187 189 190 189 192 193 187 187 191 195 198 199 200 201 199 201 204 203 203 206 207 206 208 212 215 218 219 221 225 224 219 218 218 215 210 207 206 205 204 202 199 199 199 197 195 197
49 56 66 75 86 90 87 96 107 106 113 118 119 153 177 222 213 201 181 176 174 173 172 171 171 170 169 171 172 174 176 177 180 183 184 185 186 187 188 187 186 186 187 189 188 187 191 191 188 189 193 196 196 196 200 202 200 203 207 207 207 209 209 209 211 210 213 218 219 221 227 224 219 218 214 211 208 205 204 204 203 203 201 199 198 197 196 196
59 61 67 73 79 83 78 87 107 112 110 96 70 158 195 175 170 159 155 162 163 163 165 166 167 168 168 169 171 174 176 176 179 182 182 183 186 187 186 186 186 187 188 190 188 187 188 190 188 187 191 194 194 196 201 203 203 205 208 208 209 209 210 214 217 214 213 216 216 220 226 222 218 216 211 209 206 203 203 202 201 202 202 201 199 197 197 196
57 59 65 72 78 79 73 79 88 76 62 59 32 28 163 150 149 151 153 157 158 158 161 163 164 167 168 170 171 173 174 175 178 180 181 182 184 185 185 186 187 188 190 191 190 188 189 192 190 186 187 192 195 198 202 204 205 206 208 207 208 208 208 212 216 214 214 215 215 219 224 218 214 211 206 205 204 201 201 201 200 199 199 200 199 198 198 197
58 63 69 75 78 76 68 63 56 42 41 41 19 46 109 125 139 152 157 157 159 160 159 160 163 167 169 170 170 170 172 175 176 177 179 181 182 185 185 185 186 188 190 191 189 189 191 194 193 192 192 195 198 201 202 202 203 206 207 207 208 207 206 208 211 212 214 214 213 217 219 211 206 205 200 200 202 201 201 200 198 197 196 197 198 199 199 199
57 62 65 69 73 68 58 55 53 50 50 49 48 73 102 116 125 141 151 153 155 159 159 159 163 166 169 170 170 169 170 172 173 175 177 178 180 184 184 183 185 187 188 189 189 190 195 197 198 200 202 202 204 205 202 201 202 205 206 206 207 207 207 209 212 214 214 212 212 215 216 211 203 199 197 199 201 202 201 200 197 196 195 195 197 199 200 199
55 59 58 57 61 58 50 54 59 57 57 60 65 77 99 115 119 129 141 143 145 152 155 156 160 164 166 169 170 169 168 169 170 170 173 174 175 177 178 181 184 184 183 187 189 191 196 198 199 203 204 202 203 202 200 201 204 205 206 206 207 207 208 210 214 215 213 212 213 212 214 217 207 196 197 199 201 202 202 201 198 196 196 195 196 197 197 198
53 57 56 54 54 51 46 46 45 46 56 70 80 88 99 110 118 125 132 136 141 147 149 151 158 164 167 170 172 170 168 169 168 167 169 172 171 171 174 179 183 182 182 186 189 192 197 198 198 202 202 200 201 201 202 204 205 207 207 207 208 208 209 211 213 214 212 213 215 210 211 216 216 207 202 199 200 202 201 201 199 195 195 196 194 194 195 196
49 51 53 52 50 46 43 45 48 52 63 75 85 93 100 109 117 121 128 132 134 139 145 147 152 160 167 171 173 172 170 170 170 168 168 169 169 171 175 178 182 184 184 186 188 192 197 195 195 199 201 201 203 203 205 206 206 207 208 208 208 209 211 212 214 215 215 216 219 213 209 214 217 216 208 201 200 202 200 199 198 195 194 195 194 194 195 196
52 53 51 48 48 50 52 58 65 68 71 78 86 92 100 108 110 112 121 124 123 128 137 142 145 153 161 168 171 171 169 169 170 169 166 166 168 173 177 179 182 183 185 187 188 191 195 192 191 195 198 200 203 203 204 206 207 207 208 208 208 209 210 212 213 215 216 218 220 219 216 215 214 212 207 202 201 202 200 199 199 197 195 194 195 195 195 196
51 53 50 47 53 60 61 63 67 70 75 80 84 88 95 101 103 107 114 115 116 123 129 134 143 150 154 160 165 167 167 166 167 169 168 168 170 174 178 181 182 182 185 188 188 190 195 194 192 196 199 200 202 204 204 204 206 208 209 208 207 208 210 212 213 214 214 216 217 219 221 218 212 208 206 205 205 205 203 202 201 200 198 196 196 196 195 195
45 46 45 47 59 63 60 60 62 68 74 73 73 80 87 92 96 105 112 112 113 118 120 126 140 148 150 154 160 167 171 170 168 170 172 172 172 172 177 181 183 184 186 188 188 191 196 197 195 198 201 199 199 203 202 200 204 209 210 209 208 209 210 211 212 213 214 216 217 218 220 217 208 205 205 206 208 209 207 206 203 201 200 198 197 197 196 195